Theta_e
335 330 319 318 302 300 295 299 307 307 309 316 316 310 308 311 312 303 320 333 334 335 344 349 353 352 351 350 348 347 346 345 344 341 338 337 336 336 335 335 335 334 334 334 334 334 334 333 333
319 320 318 311 300 295 294 303 303 308 312 317 314 312 313 313 320 322 324 335 334 336 343 344 353 352 352 350 350 348 346 345 344 342 339 338 337 336 336 335 335 334 335 335 335 334 334 335 335
319 316 309 306 299 295 295 303 307 312 318 316 313 315 316 318 327 325 328 336 332 335 340 342 353 352 352 351 350 349 348 346 345 342 341 339 339 338 337 336 336 336 337 338 338 337 338 338 338
317 312 308 301 300 302 302 306 311 312 317 317 317 313 316 326 328 326 336 334 331 334 337 343 353 353 352 352 351 350 348 348 346 344 343 340 339 340 340 338 338 338 339 339 340 340 341 342 341
313 307 298 297 300 306 309 311 309 309 313 316 315 312 314 323 333 337 335 334 328 332 334 340 352 353 353 353 352 350 349 348 348 347 345 343 342 342 341 341 341 341 342 343 343 344 344 344 344
306 304 295 294 298 305 307 310 310 310 314 317 312 312 315 324 334 336 336 333 330 330 332 335 351 352 353 353 352 351 349 349 348 348 347 347 346 344 343 343 343 343 343 343 345 345 345 346 344
304 299 295 298 300 303 306 310 308 309 310 312 315 310 312 320 328 337 336 333 331 329 330 332 342 348 353 352 351 351 349 349 349 348 348 348 348 347 344 344 344 344 345 345 346 346 345 345 343
308 303 296 298 299 300 307 308 309 310 310 317 319 310 308 317 322 336 334 333 332 331 328 329 337 341 343 345 352 351 350 349 349 349 349 349 349 348 347 346 347 345 346 346 345 345 345 345 344
311 298 295 298 300 302 306 304 311 315 313 314 315 315 317 320 321 323 320 321 327 334 330 329 334 336 340 341 345 351 351 350 350 349 349 347 343 342 342 345 346 345 345 346 346 346 346 344 342
306 298 299 305 307 304 307 307 309 310 310 311 314 318 319 320 317 318 317 321 321 330 333 333 334 333 336 339 339 344 343 343 344 342 342 342 339 338 342 343 346 345 345 348 347 347 345 341 331
307 302 307 307 310 311 310 310 312 308 306 310 312 315 317 317 317 316 318 317 321 326 331 336 335 335 333 335 336 339 342 340 341 340 338 340 339 338 339 335 336 336 345 340 343 340 337 332 330
304 310 310 311 313 314 311 311 308 310 309 314 316 318 317 316 315 316 316 316 313 314 325 334 337 336 334 333 335 335 338 337 338 339 338 339 335 333 333 331 330 330 335 337 334 332 332 330 329
305 308 311 314 315 314 313 310 309 310 314 317 318 317 316 315 315 314 316 316 315 312 315 327 336 336 336 334 333 334 337 337 337 338 339 338 335 332 330 329 329 329 331 333 330 329 329 328 329
299 304 307 308 307 308 307 308 310 312 316 315 316 314 314 314 314 313 313 313 314 315 314 319 335 337 336 336 334 334 336 337 336 338 339 337 334 331 330 328 328 327 328 328 329 329 326 326 326
299 295 298 299 301 301 306 302 303 311 314 313 314 313 312 313 314 313 314 314 315 316 315 314 331 335 335 335 334 334 335 336 335 336 337 336 334 331 330 328 328 327 327 327 327 329 327 323 325
296 294 291 300 301 302 303 296 305 310 310 310 311 311 312 312 312 313 314 313 314 313 314 315 324 332 334 335 334 334 336 335 335 334 335 336 334 332 329 328 327 327 327 326 324 326 325 322 322
291 290 292 296 303 303 302 298 306 310 309 307 308 310 311 311 312 313 315 315 315 314 315 315 316 325 333 333 331 333 334 335 334 333 334 335 335 333 330 328 327 327 326 324 323 322 322 319 319
287 288 293 294 299 302 300 299 304 306 307 305 306 308 309 310 312 313 314 315 313 314 314 315 318 326 328 329 329 328 330 329 331 332 334 335 334 332 330 327 326 326 324 323 322 322 321 321 319
293 293 291 295 299 299 298 298 301 304 304 305 306 308 309 308 310 312 313 314 313 313 313 316 327 328 332 331 327 325 327 324 325 329 333 332 332 331 328 327 325 325 324 324 324 322 320 318 318
291 288 288 293 297 295 295 296 298 302 303 304 305 306 306 306 307 310 311 311 315 317 319 321 329 331 331 329 325 325 324 323 325 326 328 331 332 332 328 326 325 325 325 323 321 320 319 318 318
289 288 289 289 294 295 293 291 294 297 300 303 305 305 306 305 306 308 309 312 316 321 324 326 330 331 331 328 328 325 324 324 323 323 324 327 330 330 329 327 326 324 323 321 320 320 318 316 317
284 292 292 291 289 284 292 283 291 295 296 299 301 302 301 304 307 308 309 311 319 322 327 329 331 331 331 329 327 326 322 320 321 323 323 325 328 328 328 328 326 324 322 321 320 321 319 317 314
286 292 291 291 288 285 287 283 289 294 294 297 299 301 302 305 305 307 308 312 320 325 328 330 331 329 328 329 328 325 320 320 321 322 323 323 325 327 329 327 325 323 322 321 321 320 318 317 315
292 289 289 288 286 281 286 285 287 291 294 297 300 300 303 304 305 305 308 318 323 326 328 328 330 326 327 327 325 323 322 320 321 320 321 322 322 324 326 326 323 323 322 321 320 320 319 318 317
286 281 277 276 277 279 288 285 289 293 296 297 297 299 302 303 302 312 317 320 323 326 327 327 328 325 325 324 323 323 322 321 321 321 321 320 320 320 323 324 322 321 321 322 320 319 319 319 318
283 282 277 275 276 280 288 283 288 297 300 301 301 300 301 301 301 313 318 321 325 326 326 326 326 324 324 323 322 322 322 322 321 321 321 321 321 321 322 323 323 323 323 322 321 319 319 320 321
285 280 285 279 281 279 283 289 294 297 297 298 299 298 298 300 306 315 319 322 325 325 324 325 325 324 323 323 323 322 322 322 321 322 322 322 321 323 324 323 322 322 323 322 320 318 319 321 321
287 289 279 278 275 275 281 283 286 291 294 297 297 298 299 301 312 318 322 324 325 325 325 324 325 324 322 322 323 323 322 322 322 322 322 323 323 325 323 323 323 322 322 322 319 318 321 322 322
285 284 285 282 280 276 277 281 291 293 296 295 296 299 302 307 316 320 323 325 325 325 325 325 324 323 321 322 321 321 322 322 322 322 323 323 323 324 324 324 323 322 321 320 319 319 322 322 322
287 286 285 280 278 282 280 283 295 294 294 296 297 301 311 313 317 321 324 324 324 325 324 324 324 323 321 321 321 321 322 321 321 322 323 324 323 324 324 325 323 323 323 321 320 320 324 323 322
Wind_Speed
5 4 1 2 3 4 4 8 3 9 4 2 3 7 9 8 8 7 3 13 10 14 15 19 22 21 21 19 18 17 17 17 17 16 16 14 13 13 12 10 9 8 7 6 5 4 3 3 1
5 4 2 1 4 2 6 6 7 8 7 5 1 5 5 3 1 3 4 7 10 16 15 16 23 22 21 20 19 19 18 18 18 17 17 16 14 13 12 11 10 8 7 7 6 4 4 3 3
5 3 3 4 4 6 6 4 5 6 6 5 2 3 7 4 1 7 2 12 10 14 14 14 23 22 22 21 20 20 19 19 19 19 17 17 15 14 13 12 11 11 9 8 7 6 6 5 5
3 3 3 2 9 8 6 2 6 9 13 7 4 4 2 2 3 6 11 14 14 13 14 17 22 22 22 22 22 21 20 20 19 19 18 18 17 15 14 13 12 11 10 9 8 8 8 8 7
3 3 1 3 8 4 4 7 6 10 7 11 3 4 2 4 7 9 12 13 16 13 13 15 24 24 24 23 22 21 21 20 19 18 19 18 17 16 15 15 14 13 11 10 10 9 9 10 10
3 2 1 6 9 3 5 7 2 5 6 7 3 5 5 1 7 8 11 13 12 16 14 13 20 21 22 23 21 21 20 20 19 18 18 17 16 16 16 15 14 13 12 11 11 11 10 7 7
6 3 4 4 5 4 5 6 2 4 7 6 8 5 3 2 8 9 12 7 7 8 11 9 12 17 20 20 21 21 22 21 20 19 18 17 16 16 16 15 13 13 12 12 11 11 9 8 8
5 5 3 5 4 6 2 4 2 1 5 9 0 3 3 7 8 6 3 3 3 5 8 11 11 13 13 14 22 22 22 21 20 20 20 18 18 17 16 14 13 13 13 12 11 11 10 9 8
4 3 6 6 6 4 5 4 3 7 3 5 4 2 7 5 8 7 2 1 3 5 7 8 10 12 14 13 14 20 23 22 22 20 21 17 9 9 12 12 13 14 14 13 12 11 10 9 10
5 5 10 6 10 5 6 8 6 6 9 4 5 4 6 5 5 9 9 11 9 11 12 11 12 15 13 11 11 13 11 11 12 12 11 9 8 8 9 11 15 15 14 14 13 12 11 10 3
7 10 15 12 7 6 10 15 3 5 8 5 6 8 7 5 8 8 10 9 16 20 7 15 16 13 13 12 8 7 7 7 8 9 8 7 6 6 5 3 3 3 11 4 7 6 4 5 4
6 13 15 15 13 6 15 4 11 11 10 17 13 7 8 9 9 11 11 11 9 10 15 16 15 13 14 9 9 10 8 7 7 8 10 8 5 5 5 4 4 4 4 5 5 3 4 5 5
15 9 10 18 15 14 13 16 13 17 17 15 15 11 11 10 11 6 11 9 11 7 12 13 11 14 13 13 8 8 9 8 8 8 10 9 7 6 5 5 4 4 3 4 4 4 4 4 5
0 13 18 12 12 8 12 19 14 14 18 17 14 13 11 11 11 8 9 9 8 11 10 9 13 16 12 13 13 9 8 8 8 8 10 11 7 6 6 4 4 4 4 4 5 6 5 4 4
6 8 10 11 5 7 2 22 23 18 15 17 19 18 8 11 11 11 11 9 11 9 8 12 15 11 14 16 12 9 8 8 8 8 10 12 10 8 7 5 4 5 4 5 3 4 3 4 3
4 5 17 16 9 6 8 28 10 10 12 19 19 15 13 11 12 13 11 11 13 8 10 9 9 12 13 13 10 8 7 8 7 7 8 11 11 9 5 5 4 4 4 4 3 3 3 3 4
5 15 17 12 10 10 16 28 16 13 10 15 14 15 15 14 13 11 13 13 11 10 11 10 9 10 11 8 6 6 7 7 7 7 7 10 10 9 7 6 5 5 4 4 3 2 3 3 3
12 13 16 12 3 12 14 29 18 9 8 11 13 14 16 16 18 14 16 15 10 10 9 7 6 8 7 6 5 4 5 4 6 6 7 9 7 8 8 5 5 5 4 4 3 4 3 3 3
6 12 5 7 9 11 19 23 20 14 15 21 21 21 23 15 11 12 15 13 10 8 9 9 8 8 9 6 5 4 7 4 3 5 8 8 7 7 7 5 5 5 5 5 4 3 5 3 3
11 7 6 6 8 5 9 14 13 12 16 13 16 17 17 9 11 17 12 9 9 6 9 7 8 9 5 3 3 4 5 2 3 3 5 7 8 7 6 6 5 6 4 4 3 4 2 3 4
9 14 11 5 8 16 12 18 14 11 10 13 16 15 10 10 13 14 9 11 5 8 7 8 8 9 7 8 7 5 5 4 3 3 3 3 6 6 7 6 5 5 4 4 5 5 5 3 2
12 4 7 10 6 10 4 20 21 18 22 19 16 14 9 12 14 9 10 7 8 5 3 5 8 10 9 10 8 10 5 4 3 4 3 4 6 6 6 6 6 5 4 5 4 4 3 3 4
12 13 8 10 6 3 5 8 18 8 21 17 18 17 15 17 10 12 11 10 6 6 7 7 9 8 8 8 10 6 5 3 3 3 6 4 4 6 5 5 6 6 4 4 4 4 4 3 3
3 5 8 7 3 11 10 9 21 12 21 22 19 13 15 11 10 10 8 5 6 7 7 7 10 6 8 8 8 8 8 6 5 4 4 4 3 3 5 5 5 5 5 4 4 4 5 5 4
4 5 1 2 4 11 13 11 23 8 3 6 7 10 11 10 7 7 7 8 9 10 9 8 10 8 7 9 7 7 7 7 8 6 4 5 3 2 4 4 5 3 4 4 4 5 5 5 4
5 9 5 7 5 5 5 16 14 19 25 19 16 12 11 10 8 9 9 8 10 9 8 9 10 9 8 8 8 6 7 5 4 5 4 4 3 3 3 5 5 5 4 4 4 3 3 4 4
2 4 8 3 3 1 7 14 17 13 15 12 14 5 10 9 9 8 7 7 10 10 8 10 10 9 9 8 8 7 6 7 6 6 4 3 3 3 4 5 5 5 4 5 4 3 3 4 3
7 4 3 1 5 6 6 8 13 2 14 15 13 11 10 9 7 9 10 11 9 9 8 9 9 11 8 8 7 6 7 6 6 5 5 4 3 4 5 4 5 5 5 4 4 2 3 4 3
2 2 4 2 5 5 4 9 7 12 11 4 9 12 15 10 10 12 12 11 10 10 10 10 10 10 8 7 6 7 6 6 6 5 4 4 4 5 5 5 5 5 5 4 3 3 4 4 4
4 6 1 6 7 11 2 11 8 8 6 8 10 12 6 4 6 10 13 12 12 11 10 10 9 10 8 7 7 6 6 6 5 4 4 4 4 4 5 5 5 5 5 5 5 4 3 4 4
Wind_Direction
155 158 125 40 70 70 256 258 245 275 299 211 220 157 180 164 171 212 315 168 137 145 165 173 177 177 176 173 171 167 161 156 153 151 153 155 154 154 154 156 156 155 154 153 156 158 158 157 166
151 136 32 92 118 155 261 236 247 231 254 292 134 104 118 215 195 137 107 181 155 153 167 174 178 177 178 175 175 170 168 162 161 160 163 164 163 164 164 170 170 171 174 177 181 194 207 206 214
157 116 108 168 183 193 222 202 281 320 304 311 281 79 155 191 124 173 244 143 138 158 172 174 178 178 179 179 179 174 172 171 168 167 170 171 171 173 175 182 184 182 192 197 202 209 220 231 238
156 46 359 168 225 237 218 292 331 313 307 219 226 108 359 195 157 198 135 143 150 168 174 179 180 180 182 183 183 178 178 178 173 174 176 177 179 180 180 188 196 194 197 210 216 224 233 240 243
45 71 198 242 251 264 228 259 265 284 238 250 138 149 166 310 88 127 148 157 166 173 181 183 182 185 186 187 187 182 183 183 178 180 181 182 184 185 189 191 198 199 201 212 228 235 245 253 251
70 94 113 232 248 247 248 229 272 294 266 261 118 133 177 34 129 174 165 180 178 174 183 188 187 192 190 192 190 185 185 186 184 186 187 188 189 189 193 199 204 208 210 216 229 240 250 255 270
133 108 221 247 261 268 242 223 259 296 302 296 146 111 301 204 213 175 183 171 175 179 177 182 191 197 200 197 192 192 189 191 188 188 190 190 194 196 197 204 209 216 218 223 233 232 240 248 257
135 115 274 247 227 259 250 345 326 302 307 315 180 149 191 216 195 163 135 147 182 176 182 188 191 195 199 203 199 196 195 195 192 192 192 193 196 200 202 205 211 218 226 229 228 228 233 237 243
141 114 236 231 195 229 313 43 290 292 354 351 317 100 246 148 130 111 123 259 208 213 208 200 202 199 199 203 206 200 202 199 198 198 196 190 190 198 201 203 209 222 228 229 228 225 228 231 242
156 172 229 207 235 290 292 298 331 351 343 325 352 334 321 129 148 171 188 216 222 217 211 198 201 206 194 201 204 201 202 204 199 198 197 192 182 186 195 206 215 222 233 230 227 226 229 234 205
196 215 232 241 235 286 299 311 304 335 307 185 300 315 306 209 193 203 218 218 212 223 203 205 207 197 199 197 196 199 199 200 199 191 180 185 184 193 199 197 216 203 236 219 228 227 210 209 196
219 225 231 254 247 257 263 283 299 284 243 290 281 267 291 288 220 205 235 230 216 212 223 217 207 197 198 197 200 199 198 196 193 189 173 176 182 182 193 194 204 206 213 205 194 201 204 221 207
244 234 233 248 255 261 278 263 253 276 282 270 286 275 266 260 271 225 233 270 265 213 230 226 195 199 196 199 200 198 195 194 187 180 183 183 184 183 187 213 194 205 203 194 191 202 208 220 219
19 236 250 266 264 261 266 274 268 262 268 279 273 268 253 261 249 270 280 255 253 252 234 207 199 206 190 201 200 197 192 189 180 180 186 186 185 183 196 218 204 210 200 192 190 193 204 225 221
253 281 275 240 249 248 356 271 255 253 267 270 273 276 257 247 258 243 245 252 243 252 247 207 204 188 193 201 198 192 190 178 182 181 181 185 187 190 195 195 194 210 192 191 183 206 192 223 231
224 195 242 249 213 231 159 260 251 237 237 254 263 272 276 261 221 233 237 239 247 240 246 217 188 189 192 196 189 190 174 175 182 178 179 183 190 174 175 170 195 190 181 178 178 185 190 218 220
251 239 231 258 221 209 202 257 249 246 244 264 269 267 271 280 286 288 272 265 259 230 242 221 184 187 192 177 170 171 159 173 175 171 174 180 181 164 171 180 182 168 165 179 174 184 184 215 237
225 224 236 230 226 205 234 260 257 265 261 260 261 269 272 270 274 272 271 269 254 238 227 228 179 162 154 129 113 111 133 164 172 166 174 170 162 159 169 168 179 163 163 171 177 200 199 221 222
337 243 254 240 209 225 241 259 261 259 248 253 258 260 263 259 265 265 265 268 265 241 207 218 167 155 150 144 144 140 175 154 157 172 168 154 147 156 165 170 166 168 185 190 181 182 216 234 190
254 271 266 300 282 249 275 277 286 267 257 237 245 255 256 270 277 270 267 274 245 221 216 191 172 159 145 119 127 131 133 136 129 126 125 152 167 164 163 173 179 180 177 191 213 173 165 215 179
225 235 250 261 327 297 306 286 270 257 251 258 257 255 256 230 251 268 272 251 248 230 204 178 151 141 133 127 112 77 75 65 71 76 98 165 166 165 175 170 173 190 171 195 191 185 177 194 185
251 199 239 241 244 263 131 281 269 275 264 255 257 257 245 248 248 246 263 253 232 211 131 136 142 139 144 143 122 144 139 141 158 145 141 159 168 171 161 173 175 180 183 196 193 181 179 147 174
235 266 248 227 233 263 231 286 274 227 260 250 247 249 244 245 236 251 251 234 216 148 152 148 135 128 141 130 135 134 115 118 119 98 120 141 157 161 167 169 174 185 184 202 187 175 188 176 161
182 214 223 232 169 248 209 199 277 244 243 246 239 229 239 241 239 242 251 177 144 135 139 137 131 127 124 118 121 129 131 124 112 119 132 136 138 148 186 174 184 180 184 186 198 199 193 194 187
167 84 163 181 207 231 184 190 239 251 252 228 221 243 248 249 250 224 192 171 157 157 143 136 134 125 117 113 120 134 138 138 137 139 140 148 155 181 210 172 183 178 187 191 190 190 199 192 191
185 163 179 185 183 225 149 228 238 230 256 266 271 261 254 251 236 213 197 168 157 141 145 130 131 122 122 121 127 123 122 124 126 141 146 165 178 185 183 185 180 181 174 180 190 202 199 193 212
202 170 203 20 235 231 233 264 282 266 288 293 282 242 258 247 220 198 157 150 140 139 138 130 125 122 126 126 121 123 123 128 142 146 143 163 176 181 168 178 167 174 171 181 178 182 208 204 212
166 212 99 24 204 234 256 257 238 223 244 268 283 296 292 251 181 152 151 140 130 132 130 121 126 136 134 130 132 135 137 133 135 138 165 163 165 140 150 151 155 162 168 187 176 175 210 188 180
27 222 195 187 195 222 285 256 209 212 275 287 287 293 300 239 171 151 142 138 134 131 135 132 131 131 133 133 130 128 135 134 145 152 152 158 151 151 148 163 158 174 169 180 168 201 192 182 167
262 273 131 213 236 240 279 261 302 259 360 323 308 307 279 134 142 143 139 135 138 140 137 140 141 139 149 141 134 135 133 142 138 152 155 140 149 151 158 158 162 174 170 173 190 199 191 185 183